Regional Weather Roundup
Issued by NWS

Home | Current Version | Previous Version | Graphics & Text | Print | Product List | Glossary On
Versions: 1 2 3 4 5 6 7 8 9 10 11 12 13 14 15 16 17 18 19 20 21 22 23 24 25 26 27 28 29 30 31 32 33 34 35 36 37 38 39 40 41 42 43 44 45 46 47 48 49 50
000
ASUS43 KFSD 052002
RWRSD

WEATHER ROUNDUP FOR SOUTH DAKOTA
NATIONAL WEATHER SERVICE SIOUX FALLS SD
300 PM CDT TUE MAY 05 2015

NOTE: "FAIR" INDICATES FEW OR NO CLOUDS BELOW 12,000 FEET WITH NO
SIGNIFICANT WEATHER AND/OR OBSTRUCTIONS TO VISIBILITY.


SDZ001>005-009-010-012>017-052100-
NORTHWEST AND NORTH CENTRAL SOUTH DAKOTA

CITY           SKY/WX    TMP DP  RH WIND       PRES   REMARKS
BUFFALO          N/A     68  50  52 SE28G38   29.82F
FAITH            N/A     63  49  60 SE20G30   29.94F
MOBRIDGE       SUNNY     78  41  26 SE24G31   29.93F
$$

SDZ012>016-024>037-041>051-057-063-072>074-052100-
SOUTHWEST AND SOUTH CENTRAL SOUTH DAKOTA

CITY           SKY/WX    TMP DP  RH WIND       PRES   REMARKS
RAPID CTY ARPT CLOUDY    61  49  64 S18G28    29.93F
PIERRE         CLOUDY    68  50  52 SE18G29   29.96F
CUSTER         CLOUDY    52  45  77 E9        29.97F
PHILIP         CLOUDY    64  54  69 SE18      29.95F
PINE RIDGE     CLOUDY    62  49  62 SE14      29.94F
WINNER         CLOUDY    59  51  75 SE10      29.99F
$$

SDZ004>011-016>023-039-040-052100-
NORTHEAST SOUTH DAKOTA

CITY           SKY/WX    TMP DP  RH WIND       PRES   REMARKS
ABERDEEN       SUNNY     78  41  26 SE18G32   29.99F
WATERTOWN      CLOUDY    72  53  51 SE17G26   30.03F
BROOKINGS      PTSUNNY   68  55  64 SE21      30.05S
SISSETON         N/A     79  40  24 S22G29    30.01F
$$

SDZ017-020-022-023-036>040-048>070-052100-
SOUTHEAST SOUTH DAKOTA

CITY           SKY/WX    TMP DP  RH WIND       PRES   REMARKS
SIOUX FALLS    CLOUDY    69  56  62 SE10G18   30.03F
HURON            N/A     73  50  44 S14G28    29.99F
MITCHELL       CLOUDY    68  53  58 S13       30.01F
YANKTON        CLOUDY    66  57  72 SE9       30.02F
$$

ABBREVIATIONS USED IN REMARKS
   TC - TEMPERATURE IN CELSIUS
  WCI - WIND CHILL INDEX
   HX - HEAT INDEX
  VSB - VISIBILITY




USA.gov is the U.S. government's official web portal to all federal, state and local government web resources and services.